| time (UTC) | temp C | wind direction | speed KPH | gust KPH | rain 1hr cm | rain 24hr cm | rain mn cm | humidity % | barometer mb |
| 20260504223110 | 18 | 27 | 4.8 | 4.8 | 0.00 | 0.00 | 0.00 | 93 | 1011.0 |
| 20260504221606 | 18 | 19 | 4.8 | 4.8 | 0.00 | 0.00 | 0.00 | 94 | 1011.0 |
| 20260504220109 | 18 | 19 | 4.8 | 4.8 | 0.00 | 0.00 | 0.00 | 93 | 1011.0 |
| 20260504214602 | 18 | 19 | 4.8 | 4.8 | 0.00 | 0.00 | 0.00 | 93 | 1011.0 |
| 20260504213105 | 18 | 19 | 4.8 | 4.8 | 0.00 | 0.00 | 0.00 | 93 | 1011.0 |
| 20260504211605 | 18 | 23 | 4.8 | 3.2 | 0.00 | 0.00 | 0.00 | 94 | 1010.0 |
| 20260504210110 | 18 | 23 | 4.8 | 3.2 | 0.00 | 0.00 | 0.00 | 94 | 1011.0 |
| 20260504204604 | 18 | 23 | 4.8 | 3.2 | 0.00 | 0.00 | 0.00 | 93 | 1011.0 |
| 20260504203105 | 18 | 23 | 4.8 | 3.2 | 0.00 | 0.00 | 0.00 | 94 | 1011.0 |
| 20260504201602 | 18 | 24 | 4.8 | 4.8 | 0.00 | 0.00 | 0.00 | 94 | 1010.0 |
| 20260504200107 | 18 | 24 | 4.8 | 4.8 | 0.00 | 0.00 | 0.00 | 94 | 1011.0 |
| 20260504194603 | 18 | 24 | 4.8 | 4.8 | 0.00 | 0.00 | 0.00 | 94 | 1011.0 |
| 20260504193107 | 18 | 24 | 4.8 | 4.8 | 0.00 | 0.00 | 0.00 | 94 | 1011.0 |
| 20260504191602 | 18 | 17 | 4.8 | 3.2 | 0.00 | 0.00 | 0.00 | 95 | 1011.0 |
| 20260504190101 | 17 | 17 | 4.8 | 3.2 | 0.00 | 0.00 | 0.00 | 95 | 1011.0 |
| 20260504183101 | 18 | 17 | 4.8 | 3.2 | 0.00 | 0.00 | 0.00 | 95 | 1011.0 |
| 20260504181601 | 12 | 21 | 4.8 | 4.8 | 0.00 | 0.00 | 0.00 | 94 | 1011.0 |
| 20260504174601 | 15 | 21 | 4.8 | 4.8 | 0.00 | 0.00 | 0.00 | 94 | 1011.0 |
| 20260504173101 | 16 | 21 | 4.8 | 4.8 | 0.00 | 0.00 | 0.00 | 94 | 1011.0 |
| 20260504171601 | 17 | 21 | 4.8 | 4.8 | 0.00 | 0.00 | 0.00 | 94 | 1012.0 |
| 20260504140103 | 17 | 76 | 3.2 | 3.2 | 0.00 | 0.00 | 0.00 | 95 | 1013.0 |
| 20260504130105 | 14 | 55 | 4.8 | 3.2 | 0.00 | 0.00 | 0.00 | 96 | 1013.0 |
| 20260504120108 | 18 | 55 | 4.8 | 3.2 | 0.00 | 0.00 | 0.00 | 96 | 1012.0 |
| 20260504110112 | 16 | 136 | 4.8 | 6.4 | 0.00 | 0.00 | 0.00 | 94 | 1011.0 |
| 20260504100114 | 20 | 136 | 4.8 | 6.4 | 0.00 | 0.00 | 0.00 | 94 | 1010.0 |
| 20260504090113 | 18 | 170 | 4.8 | 6.4 | 0.00 | 0.00 | 0.00 | 90 | 1010.0 |
| 20260504081604 | 21 | 170 | 4.8 | 6.4 | 0.00 | 0.00 | 0.00 | 90 | 1010.0 |
| 20260504080112 | 16 | 176 | 4.8 | 4.8 | 0.00 | 0.00 | 0.00 | 87 | 1010.0 |
| 20260504070109 | 21 | 176 | 4.8 | 4.8 | 0.05 | 0.00 | 0.00 | 87 | 1010.0 |
| 20260504060119 | 19 | 161 | 6.4 | 4.8 | 0.00 | 0.00 | 0.00 | 87 | 1011.0 |
| 20260504050103 | 22 | 161 | 6.4 | 4.8 | 0.00 | 0.00 | 0.00 | 82 | 1011.0 |
| 20260504044600 | 22 | 161 | 6.4 | 4.8 | 0.00 | 0.00 | 0.00 | 83 | 1011.0 |
| 20260504043101 | 22 | 161 | 6.4 | 4.8 | 0.15 | 0.00 | 0.00 | 81 | 1012.0 |
| 20260504041600 | 22 | 158 | 6.4 | 6.4 | 0.00 | 0.00 | 0.00 | 87 | 1012.0 |
| 20260504040104 | 22 | 158 | 6.4 | 6.4 | 0.00 | 0.00 | 0.00 | 82 | 1012.0 |
| 20260504034604 | 22 | 158 | 6.4 | 6.4 | 0.00 | 0.00 | 0.00 | 83 | 1012.0 |
| 20260504033106 | 22 | 158 | 6.4 | 6.4 | 0.08 | 0.00 | 0.00 | 81 | 1013.0 |
| 20260504031601 | 22 | 158 | 6.4 | 6.4 | 0.00 | 0.00 | 0.00 | 88 | 1013.0 |
| 20260504030105 | 22 | 158 | 6.4 | 6.4 | 0.00 | 0.00 | 0.00 | 84 | 1013.0 |
| 20260504024600 | 21 | 158 | 6.4 | 6.4 | 0.00 | 0.00 | 0.00 | 85 | 1013.0 |
| 20260504023104 | 21 | 158 | 6.4 | 6.4 | 0.03 | 0.00 | 0.00 | 85 | 1013.0 |
| 20260504021600 | 21 | 164 | 6.4 | 6.4 | 0.00 | 0.00 | 0.00 | 91 | 1013.0 |
| 20260504020108 | 21 | 164 | 6.4 | 6.4 | 0.00 | 0.00 | 0.00 | 88 | 1013.0 |
| 20260504014601 | 20 | 164 | 6.4 | 6.4 | 0.00 | 0.00 | 0.00 | 88 | 1013.0 |
| 20260504013108 | 20 | 164 | 6.4 | 6.4 | 0.03 | 0.00 | 0.00 | 88 | 1013.0 |
| 20260504011605 | 20 | 162 | 4.8 | 4.8 | 0.00 | 0.00 | 0.00 | 92 | 1013.0 |
| 20260504010105 | 19 | 162 | 4.8 | 4.8 | 0.00 | 0.00 | 0.00 | 91 | 1013.0 |
| 20260504004603 | 19 | 162 | 4.8 | 4.8 | 0.00 | 0.00 | 0.00 | 89 | 1013.0 |
| 20260504003110 | 19 | 162 | 4.8 | 4.8 | 0.00 | 0.00 | 0.00 | 89 | 1013.0 |
| 20260504001602 | 19 | 140 | 1.6 | 3.2 | 0.00 | 0.00 | 0.00 | 94 | 1012.0 |
| 20260504000110 | 19 | 140 | 1.6 | 3.2 | 0.00 | 0.00 | 0.00 | 94 | 1012.0 |
| 20260503234602 | 18 | 91 | 1.6 | 3.2 | 0.00 | 0.00 | 0.00 | 94 | 1012.0 |
| 20260503233105 | 18 | 91 | 1.6 | 3.2 | 0.00 | 0.00 | 0.00 | 94 | 1012.0 |
| 20260503231601 | 18 | 42 | 1.6 | 3.2 | 0.00 | 0.00 | 0.00 | 97 | 1012.0 |
| 20260503230103 | 18 | 42 | 1.6 | 3.2 | 0.00 | 0.00 | 0.00 | 96 | 1012.0 |
| 20260503224601 | 18 | 42 | 1.6 | 3.2 | 0.00 | 0.00 | 0.00 | 96 | 1012.0 |